Time,TemperatureF,DewpointF,PressureIn,WindDirection,WindDirectionDegrees,WindSpeedMPH,WindSpeedGustMPH,Humidity,HourlyPrecipIn,Conditions,Clouds,dailyrainin,SolarRadiationWatts/m^2,SoftwareType,DateUTC
2013-07-31 00:00:00,79.2,74.3,30.07,SE,142,4.9,6.0,85,0.00,,,-99.99,0.0,meteobridge,2013-07-31 05:00:00,
2013-07-31 00:05:00,79.2,74.3,30.06,SSE,158,0.0,8.9,85,0.00,,,0.00,0.0,meteobridge,2013-07-31 05:05:00,
2013-07-31 00:10:00,79.2,74.7,30.06,SSE,153,4.0,4.9,86,0.00,,,0.00,0.0,meteobridge,2013-07-31 05:10:00,
2013-07-31 00:15:00,79.3,74.8,30.06,SE,146,6.0,6.0,86,0.00,,,0.00,0.0,meteobridge,2013-07-31 05:15:00,
2013-07-31 00:20:00,79.3,74.5,30.06,SSE,147,2.0,8.1,85,0.00,,,0.00,0.0,meteobridge,2013-07-31 05:20:00,
2013-07-31 00:25:00,79.0,74.5,30.06,SE,140,2.0,6.9,86,0.00,,,0.00,0.0,meteobridge,2013-07-31 05:25:00,
2013-07-31 00:30:00,78.8,74.3,30.06,SSE,153,0.0,6.0,86,0.00,,,0.00,0.0,meteobridge,2013-07-31 05:30:00,
2013-07-31 00:35:00,78.6,74.5,30.05,SSE,159,6.0,6.9,87,0.00,,,0.00,0.0,meteobridge,2013-07-31 05:35:00,
2013-07-31 00:40:00,79.3,74.8,30.05,SSE,155,0.0,4.9,86,0.00,,,0.00,0.0,meteobridge,2013-07-31 05:40:00,
2013-07-31 00:45:00,79.0,74.5,30.06,SE,140,2.0,6.9,86,0.00,,,0.00,0.0,meteobridge,2013-07-31 05:45:00,
2013-07-31 00:50:00,78.6,74.1,30.05,SSE,151,0.0,6.0,86,0.00,,,0.00,0.0,meteobridge,2013-07-31 05:50:00,
2013-07-31 00:55:00,78.4,74.3,30.05,SE,144,0.0,0.0,87,0.00,,,0.00,0.0,meteobridge,2013-07-31 05:55:00,
2013-07-31 01:00:00,78.3,74.1,30.05,SE,145,2.0,6.9,87,0.00,,,0.00,0.0,meteobridge,2013-07-31 06:00:00,
2013-07-31 01:05:00,78.1,74.3,30.05,SSE,165,0.0,0.0,88,0.00,,,0.00,0.0,meteobridge,2013-07-31 06:05:00,
2013-07-31 01:10:00,78.3,74.5,30.05,SSE,154,4.0,4.9,88,0.00,,,0.00,0.0,meteobridge,2013-07-31 06:10:00,
2013-07-31 01:15:00,78.4,74.3,30.05,SSE,168,0.0,0.0,87,0.00,,,0.00,0.0,meteobridge,2013-07-31 06:15:00,
2013-07-31 01:21:00,78.3,74.1,30.05,SSE,157,0.0,0.0,87,0.00,,,0.00,0.0,meteobridge,2013-07-31 06:21:00,
2013-07-31 01:26:00,78.1,74.3,30.05,South,174,0.0,0.0,88,0.00,,,0.00,0.0,meteobridge,2013-07-31 06:26:00,
2013-07-31 01:31:00,78.1,74.3,30.05,SSE,161,2.0,6.9,88,0.00,,,0.00,0.0,meteobridge,2013-07-31 06:31:00,
2013-07-31 01:36:00,78.1,74.3,30.05,South,180,0.0,4.0,88,0.00,,,0.00,0.0,meteobridge,2013-07-31 06:36:00,
2013-07-31 01:41:00,78.4,74.7,30.05,SSE,163,4.0,6.0,88,0.00,,,0.00,0.0,meteobridge,2013-07-31 06:41:00,
2013-07-31 01:46:00,78.4,74.3,30.05,SSE,164,0.0,6.9,87,0.00,,,0.00,0.0,meteobridge,2013-07-31 06:46:00,
2013-07-31 01:51:00,78.3,74.1,30.05,SSE,153,4.9,4.9,87,0.00,,,0.00,0.0,meteobridge,2013-07-31 06:51:00,
2013-07-31 01:56:00,78.1,74.3,30.05,SSE,154,0.0,4.9,88,0.00,,,0.00,0.0,meteobridge,2013-07-31 06:56:00,
2013-07-31 02:01:00,78.1,74.3,30.05,SSE,158,4.0,6.9,88,0.00,,,0.00,0.0,meteobridge,2013-07-31 07:01:00,
2013-07-31 02:06:00,78.1,74.3,30.04,SSE,157,0.9,4.0,88,0.00,,,0.00,0.0,meteobridge,2013-07-31 07:06:00,
2013-07-31 02:11:00,78.1,74.3,30.04,SSE,165,0.0,0.0,88,0.00,,,0.00,0.0,meteobridge,2013-07-31 07:11:00,
2013-07-31 02:16:00,78.1,73.9,30.04,SSE,147,0.0,0.0,87,0.00,,,0.00,0.0,meteobridge,2013-07-31 07:16:00,
2013-07-31 02:21:00,77.5,73.8,30.04,SE,144,0.0,0.0,88,0.00,,,0.00,0.0,meteobridge,2013-07-31 07:21:00,
2013-07-31 02:26:00,77.5,74.1,30.04,SSE,161,0.0,0.0,89,0.00,,,0.00,0.0,meteobridge,2013-07-31 07:26:00,
2013-07-31 02:31:00,77.5,74.1,30.04,SSE,153,0.0,0.0,89,0.00,,,0.00,0.0,meteobridge,2013-07-31 07:31:00,
2013-07-31 02:36:00,77.5,74.1,30.04,SSE,156,0.0,0.0,89,0.00,,,0.00,0.0,meteobridge,2013-07-31 07:36:00,
2013-07-31 02:41:00,78.1,74.3,30.04,SSE,164,4.0,6.0,88,0.00,,,0.00,0.0,meteobridge,2013-07-31 07:41:00,
2013-07-31 02:47:00,78.1,74.3,30.04,South,170,0.0,0.0,88,0.00,,,0.00,0.0,meteobridge,2013-07-31 07:47:00,
2013-07-31 02:52:00,78.1,74.3,30.04,SSE,161,0.0,0.0,88,0.00,,,0.00,0.0,meteobridge,2013-07-31 07:52:00,
2013-07-31 02:57:00,77.9,74.1,30.04,SSE,159,0.0,0.0,88,0.00,,,0.00,0.0,meteobridge,2013-07-31 07:57:00,
2013-07-31 03:02:00,77.7,73.9,30.05,SSE,159,0.0,0.0,88,0.00,,,0.00,0.0,meteobridge,2013-07-31 08:02:00,
2013-07-31 03:07:00,77.7,73.9,30.05,SSE,157,0.0,0.0,88,0.00,,,0.00,0.0,meteobridge,2013-07-31 08:07:00,
2013-07-31 03:12:00,77.7,74.3,30.05,SSE,158,0.0,0.9,89,0.00,,,0.00,0.0,meteobridge,2013-07-31 08:12:00,
2013-07-31 03:17:00,77.7,74.3,30.05,SSE,150,0.0,0.0,89,0.00,,,0.00,0.0,meteobridge,2013-07-31 08:17:00,
2013-07-31 03:22:00,77.7,73.9,30.05,SSE,153,0.0,0.0,88,0.00,,,0.00,0.0,meteobridge,2013-07-31 08:22:00,
2013-07-31 03:27:00,77.5,73.8,30.05,SSE,153,0.0,0.0,88,0.00,,,0.00,0.0,meteobridge,2013-07-31 08:27:00,
2013-07-31 03:33:00,77.4,73.9,30.05,SSE,153,0.0,0.0,89,0.00,,,0.00,0.0,meteobridge,2013-07-31 08:33:00,
2013-07-31 03:38:00,77.4,73.9,30.05,SSE,156,2.0,4.0,89,0.00,,,0.00,0.0,meteobridge,2013-07-31 08:38:00,
2013-07-31 03:43:00,77.4,73.9,30.05,SSE,155,0.0,0.0,89,0.00,,,0.00,0.0,meteobridge,2013-07-31 08:43:00,
2013-07-31 03:48:00,77.4,73.9,30.05,SSE,155,0.0,0.0,89,0.00,,,0.00,0.0,meteobridge,2013-07-31 08:48:00,
2013-07-31 03:53:00,77.4,73.9,30.05,SSE,155,0.0,0.0,89,0.00,,,0.00,0.0,meteobridge,2013-07-31 08:53:00,
2013-07-31 03:58:00,77.2,73.8,30.04,SSE,155,0.0,0.0,89,0.00,,,0.00,0.0,meteobridge,2013-07-31 08:58:00,
2013-07-31 04:03:00,77.2,73.8,30.04,SSE,155,0.0,0.0,89,0.00,,,0.00,0.0,meteobridge,2013-07-31 09:03:00,
2013-07-31 04:08:00,77.2,73.9,30.04,SSE,155,0.0,0.0,90,0.00,,,0.00,0.0,meteobridge,2013-07-31 09:08:00,
2013-07-31 04:14:00,77.2,73.8,30.04,SSE,157,0.0,0.0,89,0.00,,,0.00,0.0,meteobridge,2013-07-31 09:14:00,
2013-07-31 04:19:00,77.2,73.8,30.04,SSE,159,0.0,0.0,89,0.00,,,0.00,0.0,meteobridge,2013-07-31 09:19:00,
2013-07-31 04:24:00,77.0,73.6,30.04,SSE,159,0.0,0.0,89,0.00,,,0.00,0.0,meteobridge,2013-07-31 09:24:00,
2013-07-31 04:29:00,76.8,73.6,30.04,SSE,159,0.0,0.0,90,0.00,,,0.00,0.0,meteobridge,2013-07-31 09:29:00,
2013-07-31 04:34:00,76.6,73.4,30.04,SSE,159,0.0,0.0,90,0.00,,,0.00,0.0,meteobridge,2013-07-31 09:34:00,
2013-07-31 04:39:00,76.6,73.4,30.04,SSE,159,0.0,0.0,90,0.00,,,0.00,0.0,meteobridge,2013-07-31 09:39:00,
2013-07-31 04:45:00,76.8,73.6,30.04,SSE,162,4.0,4.9,90,0.00,,,0.00,0.0,meteobridge,2013-07-31 09:45:00,
2013-07-31 04:50:00,77.0,73.8,30.04,SSE,165,0.0,0.0,90,0.00,,,0.00,0.0,meteobridge,2013-07-31 09:50:00,
2013-07-31 04:55:00,77.2,73.9,30.04,SSE,159,0.0,0.0,90,0.00,,,0.00,0.0,meteobridge,2013-07-31 09:55:00,
2013-07-31 05:00:00,77.2,73.9,30.03,SSE,159,0.0,0.0,90,0.00,,,0.00,0.0,meteobridge,2013-07-31 10:00:00,
2013-07-31 05:05:00,77.4,74.1,30.04,SSE,157,0.0,0.0,90,0.00,,,0.00,0.0,meteobridge,2013-07-31 10:05:00,
2013-07-31 05:10:00,77.4,74.1,30.04,SSE,157,0.0,0.0,90,0.00,,,0.00,0.0,meteobridge,2013-07-31 10:10:00,
2013-07-31 05:15:00,77.4,74.1,30.04,SSE,157,0.0,0.0,90,0.00,,,0.00,0.0,meteobridge,2013-07-31 10:15:00,
2013-07-31 05:20:00,77.2,73.9,30.03,SSE,158,0.0,0.0,90,0.00,,,0.00,0.0,meteobridge,2013-07-31 10:20:00,
2013-07-31 05:25:00,77.2,73.9,30.03,SSE,158,0.0,0.0,90,0.00,,,0.00,0.0,meteobridge,2013-07-31 10:25:00,
2013-07-31 05:30:00,77.0,73.8,30.04,SSE,158,0.0,0.0,90,0.00,,,0.00,0.0,meteobridge,2013-07-31 10:30:00,
2013-07-31 05:35:00,76.8,73.6,30.04,SSE,158,0.0,0.0,90,0.00,,,0.00,0.0,meteobridge,2013-07-31 10:35:00,
2013-07-31 05:40:00,76.8,73.6,30.04,SSE,158,0.0,0.0,90,0.00,,,0.00,0.0,meteobridge,2013-07-31 10:40:00,
2013-07-31 05:45:00,76.8,73.6,30.04,SSE,158,0.0,0.0,90,0.00,,,0.00,0.0,meteobridge,2013-07-31 10:45:00,
2013-07-31 05:51:00,76.6,73.4,30.04,SSE,158,0.0,0.0,90,0.00,,,0.00,0.0,meteobridge,2013-07-31 10:51:00,
2013-07-31 05:56:00,76.6,73.8,30.04,SSE,155,0.9,4.0,91,0.00,,,0.00,0.0,meteobridge,2013-07-31 10:56:00,
2013-07-31 06:01:00,76.5,73.6,30.04,SSE,155,0.0,0.0,91,0.00,,,0.00,0.0,meteobridge,2013-07-31 11:01:00,
2013-07-31 06:06:00,76.5,73.6,30.05,SSE,155,0.0,0.0,91,0.00,,,0.00,0.0,meteobridge,2013-07-31 11:06:00,
2013-07-31 06:11:00,76.5,73.6,30.05,SSE,155,0.0,0.0,91,0.00,,,0.00,0.0,meteobridge,2013-07-31 11:11:00,
2013-07-31 06:16:00,76.3,73.4,30.05,SSE,155,0.0,0.0,91,0.00,,,0.00,0.0,meteobridge,2013-07-31 11:16:00,
2013-07-31 06:21:00,76.3,73.4,30.06,SSE,155,0.0,0.0,91,0.00,,,0.00,0.0,meteobridge,2013-07-31 11:21:00,
2013-07-31 06:26:00,76.5,73.6,30.06,SSE,155,0.0,0.0,91,0.00,,,0.00,0.0,meteobridge,2013-07-31 11:26:00,
2013-07-31 06:32:00,76.5,73.9,30.05,SSE,167,0.0,6.0,92,0.00,,,0.00,0.0,meteobridge,2013-07-31 11:32:00,
2013-07-31 06:37:00,76.6,73.8,30.06,South,172,0.0,0.9,91,0.00,,,0.00,0.0,meteobridge,2013-07-31 11:37:00,
2013-07-31 06:42:00,76.8,73.9,30.06,South,177,0.0,0.0,91,0.00,,,0.00,0.0,meteobridge,2013-07-31 11:42:00,
2013-07-31 06:47:00,76.8,73.9,30.06,SSW,196,0.0,0.0,91,0.00,,,0.00,5.0,meteobridge,2013-07-31 11:47:00,
2013-07-31 06:52:00,76.8,73.9,30.06,SSW,196,0.0,0.0,91,0.00,,,0.00,11.0,meteobridge,2013-07-31 11:52:00,
2013-07-31 06:57:00,76.8,73.9,30.06,East,90,0.0,0.0,91,0.00,,,0.00,14.0,meteobridge,2013-07-31 11:57:00,
2013-07-31 07:03:00,77.0,74.1,30.06,SSE,153,0.0,2.0,91,0.00,,,0.00,19.0,meteobridge,2013-07-31 12:03:00,
2013-07-31 07:08:00,77.0,74.1,30.06,SSE,161,0.0,0.0,91,0.00,,,0.00,23.0,meteobridge,2013-07-31 12:08:00,
2013-07-31 07:13:00,77.4,74.5,30.07,SSE,153,2.0,4.9,91,0.00,,,0.00,28.0,meteobridge,2013-07-31 12:13:00,
2013-07-31 07:18:00,77.7,74.5,30.07,SSE,157,0.0,0.0,90,0.00,,,0.00,33.0,meteobridge,2013-07-31 12:18:00,
2013-07-31 07:23:00,77.7,74.3,30.07,South,169,0.0,0.0,89,0.00,,,0.00,40.0,meteobridge,2013-07-31 12:23:00,
2013-07-31 07:28:00,77.7,74.3,30.07,SSE,150,2.0,6.0,89,0.00,,,0.00,46.0,meteobridge,2013-07-31 12:28:00,
2013-07-31 07:33:00,77.9,74.5,30.07,SE,138,0.0,4.9,89,0.00,,,0.00,56.0,meteobridge,2013-07-31 12:33:00,
2013-07-31 07:38:00,78.1,74.5,30.07,SSE,153,0.0,0.0,89,0.00,,,0.00,70.0,meteobridge,2013-07-31 12:38:00,
2013-07-31 07:43:00,78.4,74.8,30.07,SSE,148,0.0,6.0,89,0.00,,,0.00,84.0,meteobridge,2013-07-31 12:43:00,
2013-07-31 07:48:00,79.0,75.4,30.07,SSE,167,0.0,0.0,89,0.00,,,0.00,109.0,meteobridge,2013-07-31 12:48:00,
2013-07-31 07:53:00,79.3,75.6,30.07,SSE,154,0.0,6.0,88,0.00,,,0.00,134.0,meteobridge,2013-07-31 12:53:00,
2013-07-31 07:59:00,79.5,75.4,30.07,SSE,167,0.0,4.0,87,0.00,,,0.00,153.0,meteobridge,2013-07-31 12:59:00,
2013-07-31 08:04:00,79.9,75.7,30.07,SSE,153,0.9,6.9,87,0.00,,,0.00,174.0,meteobridge,2013-07-31 13:04:00,
2013-07-31 08:09:00,80.1,75.9,30.07,SSW,202,0.0,0.9,87,0.00,,,0.00,193.0,meteobridge,2013-07-31 13:09:00,
2013-07-31 08:14:00,80.2,75.7,30.07,South,171,0.9,4.9,86,0.00,,,0.00,209.0,meteobridge,2013-07-31 13:14:00,
2013-07-31 08:19:00,80.4,75.9,30.07,South,175,0.0,0.9,86,0.00,,,0.00,227.0,meteobridge,2013-07-31 13:19:00,
2013-07-31 08:24:00,81.0,76.1,30.08,South,178,0.0,4.9,85,0.00,,,0.00,246.0,meteobridge,2013-07-31 13:24:00,
2013-07-31 08:29:00,80.8,75.9,30.08,SSW,197,0.0,4.9,85,0.00,,,0.00,264.0,meteobridge,2013-07-31 13:29:00,
2013-07-31 08:34:00,81.1,76.3,30.08,SSW,203,2.9,6.0,85,0.00,,,0.00,285.0,meteobridge,2013-07-31 13:34:00,
2013-07-31 08:39:00,81.3,76.5,30.08,South,189,0.0,6.9,85,0.00,,,0.00,302.0,meteobridge,2013-07-31 13:39:00,
2013-07-31 08:44:00,81.9,76.5,30.08,South,172,6.9,8.9,84,0.00,,,0.00,320.0,meteobridge,2013-07-31 13:44:00,
2013-07-31 08:50:00,82.0,76.3,30.08,South,180,0.0,6.9,83,0.00,,,0.00,339.0,meteobridge,2013-07-31 13:50:00,
2013-07-31 08:55:00,82.4,76.6,30.08,SSW,206,0.0,6.9,83,0.00,,,0.00,357.0,meteobridge,2013-07-31 13:55:00,
2013-07-31 09:00:00,82.8,76.3,30.08,SSE,155,6.0,10.1,81,0.00,,,0.00,374.0,meteobridge,2013-07-31 14:00:00,
2013-07-31 09:05:00,82.9,75.7,30.08,South,177,4.9,11.0,79,0.00,,,0.00,394.0,meteobridge,2013-07-31 14:05:00,
2013-07-31 09:10:00,83.7,76.5,30.09,South,171,2.0,10.1,79,0.00,,,0.00,408.0,meteobridge,2013-07-31 14:10:00,
2013-07-31 09:15:00,84.6,76.1,30.08,SSE,162,6.0,8.1,76,0.00,,,0.00,438.0,meteobridge,2013-07-31 14:15:00,
2013-07-31 09:20:00,84.9,76.1,30.08,SSE,155,4.9,8.1,75,0.00,,,0.00,455.0,meteobridge,2013-07-31 14:20:00,
2013-07-31 09:25:00,84.7,75.9,30.08,South,174,4.9,8.1,75,0.00,,,0.00,397.0,meteobridge,2013-07-31 14:25:00,
2013-07-31 09:30:00,84.7,75.9,30.08,SSE,167,6.0,11.0,75,0.00,,,0.00,494.0,meteobridge,2013-07-31 14:30:00,
2013-07-31 09:35:00,84.7,75.6,30.09,SSE,161,6.0,10.1,74,0.00,,,0.00,156.0,meteobridge,2013-07-31 14:35:00,
2013-07-31 09:40:00,85.6,75.9,30.09,SSE,160,4.0,8.9,73,0.00,,,0.00,527.0,meteobridge,2013-07-31 14:40:00,
2013-07-31 09:45:00,85.6,75.6,30.09,SSW,207,6.0,11.0,72,0.00,,,0.00,566.0,meteobridge,2013-07-31 14:45:00,
2013-07-31 09:50:00,85.6,75.9,30.09,South,175,0.0,10.1,73,0.00,,,0.00,596.0,meteobridge,2013-07-31 14:50:00,
2013-07-31 09:55:00,85.8,75.7,30.08,SSW,205,2.9,8.9,72,0.00,,,0.00,684.0,meteobridge,2013-07-31 14:55:00,
2013-07-31 10:00:00,86.0,75.9,30.08,SSE,151,8.1,11.0,72,0.00,,,0.00,668.0,meteobridge,2013-07-31 15:00:00,
2013-07-31 10:05:00,85.6,75.6,30.08,South,170,6.9,11.0,72,0.00,,,0.00,687.0,meteobridge,2013-07-31 15:05:00,
2013-07-31 10:10:00,85.3,75.2,30.08,SSW,209,8.9,12.1,72,0.00,,,0.00,712.0,meteobridge,2013-07-31 15:10:00,
2013-07-31 10:15:00,85.1,75.4,30.08,SW,223,0.9,6.0,73,0.00,,,0.00,650.0,meteobridge,2013-07-31 15:15:00,
2013-07-31 10:20:00,85.8,75.7,30.08,South,182,2.9,8.1,72,0.00,,,0.00,687.0,meteobridge,2013-07-31 15:20:00,
2013-07-31 10:25:00,87.1,76.1,30.08,SSW,205,0.0,6.0,70,0.00,,,0.00,786.0,meteobridge,2013-07-31 15:25:00,
2013-07-31 10:30:00,87.6,76.1,30.08,SSW,195,2.9,11.0,69,0.00,,,0.00,780.0,meteobridge,2013-07-31 15:30:00,
2013-07-31 10:35:00,87.8,76.3,30.08,South,188,0.0,6.9,69,0.00,,,0.00,761.0,meteobridge,2013-07-31 15:35:00,
2013-07-31 10:40:00,87.8,75.9,30.08,South,171,0.0,4.9,68,0.00,,,0.00,846.0,meteobridge,2013-07-31 15:40:00,
2013-07-31 10:45:00,88.0,76.1,30.08,SW,225,4.9,4.9,68,0.00,,,0.00,744.0,meteobridge,2013-07-31 15:45:00,
2013-07-31 10:50:00,87.6,75.4,30.08,SSW,195,2.0,4.9,67,0.00,,,0.00,761.0,meteobridge,2013-07-31 15:50:00,
2013-07-31 10:55:00,87.4,75.2,30.08,SSW,207,6.0,12.1,67,0.00,,,0.00,765.0,meteobridge,2013-07-31 15:55:00,
2013-07-31 11:00:00,87.3,75.4,30.07,SSW,209,2.0,6.9,68,0.00,,,0.00,768.0,meteobridge,2013-07-31 16:00:00,
2013-07-31 11:05:00,87.8,75.0,30.07,SW,217,6.9,8.1,66,0.00,,,0.00,817.0,meteobridge,2013-07-31 16:05:00,
2013-07-31 11:10:00,88.3,75.0,30.07,SSE,159,0.0,6.0,65,0.00,,,0.00,842.0,meteobridge,2013-07-31 16:10:00,
2013-07-31 11:15:00,89.4,75.6,30.07,South,178,0.0,4.9,64,0.00,,,0.00,914.0,meteobridge,2013-07-31 16:15:00,
2013-07-31 11:20:00,90.0,75.7,30.07,SW,217,0.0,0.0,63,0.00,,,0.00,840.0,meteobridge,2013-07-31 16:20:00,
2013-07-31 11:25:00,90.5,75.7,30.06,SSW,196,0.0,2.0,62,0.00,,,0.00,828.0,meteobridge,2013-07-31 16:25:00,
2013-07-31 11:30:00,90.9,75.6,30.06,SSE,161,6.0,12.1,61,0.00,,,0.00,981.0,meteobridge,2013-07-31 16:30:00,
2013-07-31 11:35:00,90.0,74.7,30.06,South,188,2.9,6.9,61,0.00,,,0.00,381.0,meteobridge,2013-07-31 16:35:00,
2013-07-31 11:40:00,89.8,75.0,30.06,West,271,0.0,2.9,62,0.00,,,0.00,870.0,meteobridge,2013-07-31 16:40:00,
2013-07-31 11:45:00,90.0,74.1,30.06,SSW,210,0.0,2.0,60,0.00,,,0.00,870.0,meteobridge,2013-07-31 16:45:00,
2013-07-31 11:50:00,90.1,74.3,30.06,SE,124,4.9,4.9,60,0.00,,,0.00,884.0,meteobridge,2013-07-31 16:50:00,
2013-07-31 11:55:00,90.9,74.1,30.05,SSE,164,6.0,12.1,58,0.00,,,0.00,907.0,meteobridge,2013-07-31 16:55:00,
2013-07-31 12:00:00,90.9,74.5,30.05,South,179,0.0,2.9,59,0.00,,,0.00,895.0,meteobridge,2013-07-31 17:00:00,
2013-07-31 12:05:00,91.8,74.3,30.05,SSW,196,0.0,6.0,57,0.00,,,0.00,928.0,meteobridge,2013-07-31 17:05:00,
2013-07-31 12:11:00,91.9,74.5,30.05,SW,226,0.0,0.0,57,0.00,,,0.00,645.0,meteobridge,2013-07-31 17:11:00,
2013-07-31 12:16:00,92.8,74.8,30.05,WSW,255,0.0,0.0,56,0.00,,,0.00,341.0,meteobridge,2013-07-31 17:16:00,
2013-07-31 12:21:00,92.8,74.3,30.05,SW,218,0.0,0.9,55,0.00,,,0.00,700.0,meteobridge,2013-07-31 17:21:00,
2013-07-31 12:26:00,93.0,75.0,30.04,West,271,0.0,6.9,56,0.00,,,0.00,932.0,meteobridge,2013-07-31 17:26:00,
2013-07-31 12:31:00,93.0,74.5,30.04,WNW,296,2.9,6.0,55,0.00,,,0.00,965.0,meteobridge,2013-07-31 17:31:00,
2013-07-31 12:36:00,92.8,73.8,30.04,SSE,148,0.0,0.0,54,0.00,,,0.00,949.0,meteobridge,2013-07-31 17:36:00,
2013-07-31 12:41:00,93.2,72.9,30.04,South,191,2.9,4.0,52,0.00,,,0.00,984.0,meteobridge,2013-07-31 17:41:00,
2013-07-31 12:46:00,93.7,73.4,30.04,South,191,0.0,0.0,52,0.00,,,0.00,986.0,meteobridge,2013-07-31 17:46:00,
2013-07-31 12:51:00,93.9,74.1,30.04,West,278,0.0,0.0,53,0.00,,,0.00,288.0,meteobridge,2013-07-31 17:51:00,
2013-07-31 12:56:00,93.7,73.9,30.03,West,272,2.9,2.9,53,0.00,,,0.00,406.0,meteobridge,2013-07-31 17:56:00,
2013-07-31 13:02:00,93.7,74.7,30.03,SW,233,0.0,4.0,54,0.00,,,0.00,1009.0,meteobridge,2013-07-31 18:02:00,
2013-07-31 13:07:00,93.6,74.5,30.03,West,281,0.0,0.0,54,0.00,,,0.00,990.0,meteobridge,2013-07-31 18:07:00,
2013-07-31 13:12:00,93.4,74.3,30.03,North,355,0.0,0.0,54,0.00,,,0.00,441.0,meteobridge,2013-07-31 18:12:00,
2013-07-31 13:17:00,93.4,74.3,30.03,South,182,2.0,8.1,54,0.00,,,0.00,800.0,meteobridge,2013-07-31 18:17:00,
2013-07-31 13:22:00,93.9,74.1,30.03,South,171,0.0,0.0,53,0.00,,,0.00,1014.0,meteobridge,2013-07-31 18:22:00,
2013-07-31 13:27:00,95.0,72.9,30.02,South,174,0.0,2.0,49,0.00,,,0.00,1009.0,meteobridge,2013-07-31 18:27:00,
2013-07-31 13:32:00,94.8,73.2,30.02,South,180,0.0,0.0,50,0.00,,,0.00,988.0,meteobridge,2013-07-31 18:32:00,
2013-07-31 13:37:00,95.4,73.2,30.02,South,171,0.0,0.0,49,0.00,,,0.00,1020.0,meteobridge,2013-07-31 18:37:00,
2013-07-31 13:42:00,95.5,73.4,30.01,SSW,198,0.0,0.0,49,0.00,,,0.00,1000.0,meteobridge,2013-07-31 18:42:00,
2013-07-31 13:47:00,96.4,74.8,30.01,West,280,0.9,4.9,50,0.00,,,0.00,954.0,meteobridge,2013-07-31 18:47:00,
2013-07-31 13:52:00,96.4,74.1,30.01,SSW,197,0.0,0.9,49,0.00,,,0.00,993.0,meteobridge,2013-07-31 18:52:00,
2013-07-31 13:57:00,96.6,73.0,30.01,South,175,4.0,4.0,47,0.00,,,0.00,991.0,meteobridge,2013-07-31 18:57:00,
2013-07-31 14:02:00,97.0,73.4,30.01,NW,312,0.0,2.9,47,0.00,,,0.00,1009.0,meteobridge,2013-07-31 19:02:00,
2013-07-31 14:07:00,97.5,73.2,30.01,South,181,0.0,4.9,46,0.00,,,0.00,1011.0,meteobridge,2013-07-31 19:07:00,
2013-07-31 14:13:00,97.9,72.3,30.01,SW,223,0.0,0.9,44,0.00,,,0.00,1013.0,meteobridge,2013-07-31 19:13:00,
2013-07-31 14:18:00,98.2,72.5,30.00,SW,234,0.0,0.0,44,0.00,,,0.00,1021.0,meteobridge,2013-07-31 19:18:00,
2013-07-31 14:23:00,98.4,73.4,30.00,South,171,0.0,2.0,45,0.00,,,0.00,1046.0,meteobridge,2013-07-31 19:23:00,
2013-07-31 14:28:00,98.1,73.0,30.00,SW,230,0.0,0.9,45,0.00,,,0.00,1046.0,meteobridge,2013-07-31 19:28:00,
2013-07-31 14:33:00,98.1,73.0,30.00,SSE,165,0.0,0.9,45,0.00,,,0.00,1056.0,meteobridge,2013-07-31 19:33:00,
2013-07-31 14:38:00,97.9,73.6,30.00,SSW,193,0.0,2.9,46,0.00,,,0.00,332.0,meteobridge,2013-07-31 19:38:00,
2013-07-31 14:43:00,97.5,73.9,29.99,South,189,0.0,0.0,47,0.00,,,0.00,983.0,meteobridge,2013-07-31 19:43:00,
2013-07-31 14:48:00,99.0,73.9,29.99,SE,144,4.9,8.9,45,0.00,,,0.00,990.0,meteobridge,2013-07-31 19:48:00,
2013-07-31 14:53:00,98.2,73.9,29.99,ESE,120,0.0,0.0,46,0.00,,,0.00,1007.0,meteobridge,2013-07-31 19:53:00,
2013-07-31 14:58:00,98.1,73.8,29.99,ESE,114,0.0,2.0,46,0.00,,,0.00,995.0,meteobridge,2013-07-31 19:58:00,
2013-07-31 15:04:00,98.1,73.8,29.99,SW,229,0.0,0.0,46,0.00,,,0.00,932.0,meteobridge,2013-07-31 20:04:00,
2013-07-31 15:09:00,98.4,73.4,29.98,SE,140,0.0,4.0,45,0.00,,,0.00,969.0,meteobridge,2013-07-31 20:09:00,
2013-07-31 15:14:00,98.2,73.2,29.98,South,188,0.0,4.0,45,0.00,,,0.00,997.0,meteobridge,2013-07-31 20:14:00,
2013-07-31 15:19:00,97.7,73.4,29.98,SE,142,2.0,4.0,46,0.00,,,0.00,288.0,meteobridge,2013-07-31 20:19:00,
2013-07-31 15:24:00,97.3,73.8,29.98,SE,131,4.0,4.9,47,0.00,,,0.00,993.0,meteobridge,2013-07-31 20:24:00,
2013-07-31 15:29:00,97.0,72.7,29.98,SE,125,0.0,6.9,46,0.00,,,0.00,844.0,meteobridge,2013-07-31 20:29:00,
2013-07-31 15:34:00,97.5,73.2,29.98,SSE,159,0.0,4.0,46,0.00,,,0.00,962.0,meteobridge,2013-07-31 20:34:00,
2013-07-31 15:39:00,97.9,73.6,29.98,SSE,150,0.0,0.0,46,0.00,,,0.00,972.0,meteobridge,2013-07-31 20:39:00,
2013-07-31 15:45:00,98.4,73.4,29.98,ESE,119,0.0,4.9,45,0.00,,,0.00,276.0,meteobridge,2013-07-31 20:45:00,
2013-07-31 15:50:00,98.2,73.2,29.98,SE,134,0.0,0.0,45,0.00,,,0.00,984.0,meteobridge,2013-07-31 20:50:00,
2013-07-31 15:55:00,98.8,73.8,29.97,South,181,0.0,0.9,45,0.00,,,0.00,851.0,meteobridge,2013-07-31 20:55:00,
2013-07-31 16:00:00,98.6,72.1,29.97,South,170,0.0,0.0,43,0.00,,,0.00,167.0,meteobridge,2013-07-31 21:00:00,
2013-07-31 16:05:00,98.2,72.5,29.97,South,173,0.0,0.9,44,0.00,,,0.00,216.0,meteobridge,2013-07-31 21:05:00,
2013-07-31 16:10:00,97.5,73.2,29.97,SSW,193,0.0,0.0,46,0.00,,,0.00,246.0,meteobridge,2013-07-31 21:10:00,
2013-07-31 16:15:00,98.2,73.9,29.97,SSW,193,0.0,0.0,46,0.00,,,0.00,394.0,meteobridge,2013-07-31 21:15:00,
2013-07-31 16:20:00,98.2,72.5,29.96,East,89,0.0,0.0,44,0.00,,,0.00,294.0,meteobridge,2013-07-31 21:20:00,
2013-07-31 16:25:00,97.7,72.7,29.96,NE,41,0.0,0.0,45,0.00,,,0.00,786.0,meteobridge,2013-07-31 21:25:00,
2013-07-31 16:30:00,97.7,72.7,29.96,NNE,22,0.0,2.9,45,0.00,,,0.00,751.0,meteobridge,2013-07-31 21:30:00,
2013-07-31 16:36:00,97.5,73.2,29.96,NNE,17,0.0,2.9,46,0.00,,,0.00,747.0,meteobridge,2013-07-31 21:36:00,
2013-07-31 16:41:00,97.7,72.7,29.96,ESE,113,0.0,4.0,45,0.00,,,0.00,179.0,meteobridge,2013-07-31 21:41:00,
2013-07-31 16:46:00,97.5,72.7,29.96,NNW,332,0.0,0.0,45,0.00,,,0.00,165.0,meteobridge,2013-07-31 21:46:00,
2013-07-31 16:51:00,97.2,72.3,29.95,NE,53,0.0,4.0,45,0.00,,,0.00,153.0,meteobridge,2013-07-31 21:51:00,
2013-07-31 16:56:00,96.6,72.5,29.95,SE,138,2.0,2.0,46,0.00,,,0.00,132.0,meteobridge,2013-07-31 21:56:00,
2013-07-31 17:01:00,96.3,72.1,29.95,East,86,0.0,6.9,46,0.00,,,0.00,246.0,meteobridge,2013-07-31 22:01:00,
2013-07-31 17:06:00,96.1,72.0,29.95,ENE,68,0.0,2.0,46,0.00,,,0.00,599.0,meteobridge,2013-07-31 22:06:00,
2013-07-31 17:11:00,96.1,72.0,29.95,ENE,77,0.0,2.9,46,0.00,,,0.00,148.0,meteobridge,2013-07-31 22:11:00,
2013-07-31 17:16:00,96.1,72.0,29.94,SSE,157,0.0,0.9,46,0.00,,,0.00,98.0,meteobridge,2013-07-31 22:16:00,
2013-07-31 17:22:00,96.3,72.1,29.94,SE,145,0.0,0.0,46,0.00,,,0.00,167.0,meteobridge,2013-07-31 22:22:00,
2013-07-31 17:27:00,96.1,72.0,29.94,ESE,106,0.0,4.9,46,0.00,,,0.00,100.0,meteobridge,2013-07-31 22:27:00,
2013-07-31 17:32:00,96.1,71.2,29.94,SSE,149,0.0,4.0,45,0.00,,,0.00,504.0,meteobridge,2013-07-31 22:32:00,
2013-07-31 17:37:00,97.3,71.1,29.94,SSE,157,0.0,4.0,43,0.00,,,0.00,489.0,meteobridge,2013-07-31 22:37:00,
2013-07-31 17:42:00,97.9,71.6,29.93,SSE,154,0.0,2.0,43,0.00,,,0.00,469.0,meteobridge,2013-07-31 22:42:00,
2013-07-31 17:47:00,97.9,71.6,29.93,SE,133,2.0,8.9,43,0.00,,,0.00,461.0,meteobridge,2013-07-31 22:47:00,
2013-07-31 17:52:00,97.5,71.2,29.93,ESE,112,0.0,0.0,43,0.00,,,0.00,443.0,meteobridge,2013-07-31 22:52:00,
2013-07-31 17:57:00,97.5,72.0,29.93,South,188,4.0,6.0,44,0.00,,,0.00,425.0,meteobridge,2013-07-31 22:57:00,
2013-07-31 18:02:00,98.6,71.6,29.93,South,184,2.0,2.9,42,0.00,,,0.00,406.0,meteobridge,2013-07-31 23:02:00,
2013-07-31 18:07:00,98.4,71.4,29.93,SSE,155,4.9,6.9,42,0.00,,,0.00,388.0,meteobridge,2013-07-31 23:07:00,
2013-07-31 18:12:00,97.9,71.6,29.93,ESE,113,4.0,6.9,43,0.00,,,0.00,369.0,meteobridge,2013-07-31 23:12:00,
2013-07-31 18:17:00,97.3,76.8,29.93,SSE,153,11.0,17.9,52,0.00,,,0.00,348.0,meteobridge,2013-07-31 23:17:00,
2013-07-31 18:22:00,97.3,78.4,29.93,ESE,123,8.1,14.1,55,0.00,,,0.00,327.0,meteobridge,2013-07-31 23:22:00,
2013-07-31 18:27:00,96.6,77.7,29.93,ESE,116,12.1,13.0,55,0.00,,,0.00,309.0,meteobridge,2013-07-31 23:27:00,
2013-07-31 18:32:00,95.7,77.5,29.93,ESE,122,12.1,13.0,56,0.00,,,0.00,292.0,meteobridge,2013-07-31 23:32:00,
2013-07-31 18:37:00,94.1,77.0,29.93,ESE,104,6.0,15.0,58,0.00,,,0.00,274.0,meteobridge,2013-07-31 23:37:00,
2013-07-31 18:42:00,94.5,77.4,29.93,East,91,4.9,12.1,58,0.00,,,0.00,258.0,meteobridge,2013-07-31 23:42:00,
2013-07-31 18:47:00,94.6,77.5,29.93,East,96,6.9,14.1,58,0.00,,,0.00,236.0,meteobridge,2013-07-31 23:47:00,
2013-07-31 18:52:00,94.1,76.5,29.92,SE,140,6.0,14.1,57,0.00,,,0.00,218.0,meteobridge,2013-07-31 23:52:00,
2013-07-31 18:57:00,94.3,76.6,29.92,SE,144,6.9,15.0,57,0.00,,,0.00,199.0,meteobridge,2013-07-31 23:57:00,
2013-07-31 19:02:00,96.3,76.8,29.92,SSE,161,8.1,15.0,54,0.00,,,0.00,181.0,meteobridge,2013-08-01 00:02:00,
2013-07-31 19:07:00,97.0,77.0,29.92,SE,126,6.9,15.0,53,0.00,,,0.00,156.0,meteobridge,2013-08-01 00:07:00,
2013-07-31 19:12:00,94.8,76.6,29.92,SE,126,2.0,10.1,56,0.00,,,0.00,144.0,meteobridge,2013-08-01 00:12:00,
2013-07-31 19:17:00,92.8,75.9,29.92,SSE,150,8.1,17.0,58,0.00,,,0.00,125.0,meteobridge,2013-08-01 00:17:00,
2013-07-31 19:22:00,92.5,76.6,29.92,ESE,118,11.0,13.0,60,0.00,,,0.00,104.0,meteobridge,2013-08-01 00:22:00,
2013-07-31 19:27:00,93.2,76.3,29.92,ESE,114,6.0,12.1,58,0.00,,,0.00,86.0,meteobridge,2013-08-01 00:27:00,
2013-07-31 19:32:00,91.8,75.9,29.93,SE,145,8.1,14.1,60,0.00,,,0.00,72.0,meteobridge,2013-08-01 00:32:00,
2013-07-31 19:37:00,91.2,75.9,29.93,SE,136,0.0,10.1,61,0.00,,,0.00,58.0,meteobridge,2013-08-01 00:37:00,
2013-07-31 19:42:00,91.9,76.6,29.93,SE,146,8.9,8.9,61,0.00,,,0.00,47.0,meteobridge,2013-08-01 00:42:00,
2013-07-31 19:47:00,93.6,76.6,29.93,SE,142,2.0,6.9,58,0.00,,,0.00,39.0,meteobridge,2013-08-01 00:47:00,
2013-07-31 19:52:00,92.8,76.5,29.93,SSE,157,4.9,8.1,59,0.00,,,0.00,28.0,meteobridge,2013-08-01 00:52:00,
2013-07-31 19:57:00,91.2,75.4,29.93,SE,131,6.9,10.1,60,0.00,,,0.00,18.0,meteobridge,2013-08-01 00:57:00,
2013-07-31 20:02:00,90.7,75.9,29.94,South,184,6.9,12.1,62,0.00,,,0.00,12.0,meteobridge,2013-08-01 01:02:00,
2013-07-31 20:07:00,91.6,75.7,29.94,SSE,155,0.9,11.0,60,0.00,,,0.00,7.0,meteobridge,2013-08-01 01:07:00,
2013-07-31 20:13:00,91.0,75.7,29.94,SE,138,6.9,10.1,61,0.00,,,0.00,0.0,meteobridge,2013-08-01 01:13:00,
2013-07-31 20:18:00,89.4,75.2,29.94,SE,145,11.0,14.1,63,0.00,,,0.00,0.0,meteobridge,2013-08-01 01:18:00,
2013-07-31 20:23:00,89.1,75.2,29.94,SSE,156,10.1,12.1,64,0.00,,,0.00,0.0,meteobridge,2013-08-01 01:23:00,
2013-07-31 20:28:00,90.0,75.7,29.94,SSE,164,0.9,11.0,63,0.00,,,0.00,0.0,meteobridge,2013-08-01 01:28:00,
2013-07-31 20:33:00,90.1,75.4,29.94,SE,144,4.0,11.0,62,0.00,,,0.00,0.0,meteobridge,2013-08-01 01:33:00,
2013-07-31 20:38:00,89.1,75.2,29.95,SE,138,6.0,11.0,64,0.00,,,0.00,0.0,meteobridge,2013-08-01 01:38:00,
2013-07-31 20:43:00,88.2,74.8,29.95,SE,139,0.9,12.1,65,0.00,,,0.00,0.0,meteobridge,2013-08-01 01:43:00,
2013-07-31 20:48:00,89.1,75.2,29.95,SE,143,6.9,10.1,64,0.00,,,0.00,0.0,meteobridge,2013-08-01 01:48:00,
2013-07-31 20:53:00,89.2,75.0,29.95,SSE,161,4.0,6.0,63,0.00,,,0.00,0.0,meteobridge,2013-08-01 01:53:00,
2013-07-31 20:58:00,88.3,74.7,29.95,South,174,4.9,6.9,64,0.00,,,0.00,0.0,meteobridge,2013-08-01 01:58:00,
2013-07-31 21:03:00,87.4,74.3,29.95,SSE,165,4.9,14.1,65,0.00,,,0.00,0.0,meteobridge,2013-08-01 02:03:00,
2013-07-31 21:08:00,87.8,74.5,29.95,SSE,155,0.0,11.0,65,0.00,,,0.00,0.0,meteobridge,2013-08-01 02:08:00,
2013-07-31 21:13:00,89.4,74.7,29.95,South,184,4.9,8.1,62,0.00,,,0.00,0.0,meteobridge,2013-08-01 02:13:00,
2013-07-31 21:18:00,88.9,74.1,29.95,SE,144,0.9,6.9,62,0.00,,,0.00,0.0,meteobridge,2013-08-01 02:18:00,
2013-07-31 21:23:00,87.4,74.3,29.95,SE,144,4.0,4.0,65,0.00,,,0.00,0.0,meteobridge,2013-08-01 02:23:00,
2013-07-31 21:28:00,86.5,73.8,29.96,SE,140,0.0,8.1,66,0.00,,,0.00,0.0,meteobridge,2013-08-01 02:28:00,
2013-07-31 21:33:00,86.7,73.9,29.96,SE,141,8.1,11.0,66,0.00,,,0.00,0.0,meteobridge,2013-08-01 02:33:00,
2013-07-31 21:38:00,87.4,73.8,29.96,SSE,167,0.0,4.9,64,0.00,,,0.00,0.0,meteobridge,2013-08-01 02:38:00,
2013-07-31 21:43:00,86.7,73.6,29.97,SSE,148,4.0,8.1,65,0.00,,,0.00,0.0,meteobridge,2013-08-01 02:43:00,
2013-07-31 21:49:00,86.0,73.2,29.97,SE,144,8.1,8.9,66,0.00,,,0.00,0.0,meteobridge,2013-08-01 02:49:00,
2013-07-31 21:54:00,85.5,73.2,29.97,SE,145,8.1,8.1,67,0.00,,,0.00,0.0,meteobridge,2013-08-01 02:54:00,
2013-07-31 21:59:00,86.4,74.1,29.97,SSE,162,0.0,4.9,67,0.00,,,0.00,0.0,meteobridge,2013-08-01 02:59:00,
2013-07-31 22:04:00,86.2,73.9,29.97,SE,134,0.9,6.9,67,0.00,,,0.00,0.0,meteobridge,2013-08-01 03:04:00,
2013-07-31 22:09:00,85.5,73.8,29.97,ESE,116,6.9,8.9,68,0.00,,,0.00,0.0,meteobridge,2013-08-01 03:09:00,
2013-07-31 22:14:00,84.7,73.4,29.97,SSE,147,6.9,8.1,69,0.00,,,0.00,0.0,meteobridge,2013-08-01 03:14:00,
2013-07-31 22:19:00,85.6,74.3,29.98,SSE,158,6.0,8.9,69,0.00,,,0.00,0.0,meteobridge,2013-08-01 03:19:00,
2013-07-31 22:24:00,86.9,74.1,29.98,SSE,162,0.0,8.1,66,0.00,,,0.00,0.0,meteobridge,2013-08-01 03:24:00,
2013-07-31 22:29:00,85.8,73.6,29.97,SSE,162,4.9,8.1,67,0.00,,,0.00,0.0,meteobridge,2013-08-01 03:29:00,
2013-07-31 22:34:00,84.6,73.8,29.98,SE,146,6.0,8.1,70,0.00,,,0.00,0.0,meteobridge,2013-08-01 03:34:00,
2013-07-31 22:39:00,83.8,73.8,29.98,SSE,155,4.0,8.1,72,0.00,,,0.00,0.0,meteobridge,2013-08-01 03:39:00,
2013-07-31 22:44:00,84.0,73.9,29.98,SSE,162,2.0,8.1,72,0.00,,,0.00,0.0,meteobridge,2013-08-01 03:44:00,
2013-07-31 22:49:00,84.9,74.5,29.98,SSE,149,4.0,8.1,71,0.00,,,0.00,0.0,meteobridge,2013-08-01 03:49:00,
2013-07-31 22:54:00,84.9,74.5,29.98,SSE,165,0.0,6.0,71,0.00,,,0.00,0.0,meteobridge,2013-08-01 03:54:00,
2013-07-31 22:59:00,83.8,74.3,29.98,SSE,159,4.9,6.0,73,0.00,,,0.00,0.0,meteobridge,2013-08-01 03:59:00,
2013-07-31 23:01:00,83.7,74.5,29.98,SSE,158,0.0,6.0,74,0.00,,,0.00,0.0,meteobridge,2013-08-01 04:01:00,
2013-07-31 23:02:00,83.7,74.5,29.98,SSE,158,0.0,4.0,74,0.00,,,0.00,0.0,meteobridge,2013-08-01 04:02:00,
2013-07-31 23:07:00,83.1,74.3,29.98,SE,146,0.0,2.0,75,0.00,,,0.00,0.0,meteobridge,2013-08-01 04:07:00,
2013-07-31 23:12:00,82.8,74.5,29.98,SE,146,0.0,0.0,76,0.00,,,0.00,0.0,meteobridge,2013-08-01 04:12:00,
2013-07-31 23:17:00,82.6,74.7,29.99,South,181,0.9,2.0,77,0.00,,,0.00,0.0,meteobridge,2013-08-01 04:17:00,
2013-07-31 23:22:00,82.4,74.8,29.98,South,169,0.0,0.0,78,0.00,,,0.00,0.0,meteobridge,2013-08-01 04:22:00,
2013-07-31 23:27:00,82.6,75.0,29.98,SSE,165,0.0,4.9,78,0.00,,,0.00,0.0,meteobridge,2013-08-01 04:27:00,
2013-07-31 23:32:00,82.2,75.0,29.98,South,179,0.0,4.0,79,0.00,,,0.00,0.0,meteobridge,2013-08-01 04:32:00,
2013-07-31 23:37:00,82.0,75.2,29.98,SSE,155,0.0,6.0,80,0.00,,,0.00,0.0,meteobridge,2013-08-01 04:37:00,
2013-07-31 23:43:00,81.9,75.0,29.98,SSE,150,0.0,0.0,80,0.00,,,0.00,0.0,meteobridge,2013-08-01 04:43:00,
2013-07-31 23:48:00,81.9,75.0,29.98,SSE,150,0.0,0.0,80,0.00,,,0.00,0.0,meteobridge,2013-08-01 04:48:00,
2013-07-31 23:53:00,82.0,75.2,29.98,SE,146,6.0,8.1,80,0.00,,,0.00,0.0,meteobridge,2013-08-01 04:53:00,
2013-07-31 23:58:00,81.3,74.8,29.98,SE,139,4.9,6.9,81,0.00,,,0.00,0.0,meteobridge,2013-08-01 04:58:00,